[[{"header":{"parameterUnit":"m.s-1","parameterCategory":2,"la1":30.2991,"la2":30.254,"lo1":-89.0895,"lo2":-89.0444,"dy":0.0017,"dx":0.0017,"nx":28,"ny":28,"refTime":"2025-03-20T21:00:00:Z","depth":"0","parameterNumber":2,"parameterNumberName":"U-component_of_CURRENTS"},"data":[0,0,0,0,0,0,0,0,0,0,0,0,0,0,0,0,0,0,0,0,0,0,0,0,0,0,0,0,0,0,0,0,0,0,0,0,0,0,0,0,0,0,0,0,0,0,0,0,0,0,0,0,0,0,0,0,0,0,-0.2252,-0.2252,0,-0.2256,-0.2256,-0.2255,-0.2275,-0.2275,-0.2276,-0.2276,-0.2319,-0.232,-0.232,0,0,0,0,0,0,0,0,0,0,0,0,0,-0.2232,-0.2233,-0.2252,-0.2252,-0.2252,-0.2256,-0.2256,-0.2255,-0.2274,-0.2275,-0.2276,-0.2277,-0.2319,-0.232,-0.232,0,0,0,0,0,0,0,0,0,0,0,0,0,-0.2237,-0.2233,-0.2252,-0.2264,-0.2265,-0.2256,-0.2256,-0.2255,-0.2274,-0.2275,-0.2276,-0.2277,-0.2319,-0.232,-0.232,-0.2306,0,0,-0.2323,-0.2323,0,0,0,0,0,0,0,0,-0.2237,-0.2237,-0.2262,-0.2263,-0.2264,-0.2268,-0.2265,-0.2275,-0.2274,-0.2268,-0.2276,-0.2278,-0.2306,-0.2308,-0.2303,-0.2308,-0.231,-0.2323,-0.2323,-0.2324,-0.2324,0,0,0,0,0,0,0,-0.2236,-0.2237,-0.2251,-0.2262,-0.2263,-0.2259,-0.2261,-0.2266,-0.2281,-0.2269,-0.2271,-0.2274,-0.2307,-0.2302,-0.2304,-0.231,-0.2323,-0.2324,-0.2324,-0.2325,-0.2283,-0.2282,0,0,0,0,0,0,-0.2241,-0.2237,-0.2251,-0.2251,-0.2255,-0.2259,-0.2261,-0.2264,-0.228,-0.2284,-0.2274,-0.2275,-0.23,-0.2303,-0.2306,-0.2306,-0.2324,-0.2325,-0.2325,-0.2285,-0.2283,-0.2281,0,0,0,0,0,0,-0.224,-0.2242,-0.2251,-0.2246,-0.2247,-0.2259,-0.2261,-0.2263,-0.2266,-0.2284,-0.2288,-0.2275,-0.2301,-0.2305,-0.23,-0.2307,-0.2325,-0.2326,-0.2287,-0.2284,-0.2282,-0.2295,0,0,0,0,0,0,-0.224,-0.2241,-0.2239,-0.2246,-0.2248,-0.2253,-0.2261,-0.2263,-0.2267,-0.2269,-0.2286,-0.2291,-0.2302,-0.2298,-0.23,-0.2309,-0.2326,-0.2289,-0.2286,-0.2283,-0.2297,-0.2294,-0.2291,0,0,0,0,0,-0.2239,-0.2234,-0.2238,-0.224,-0.2246,-0.2253,-0.2253,-0.2263,-0.2266,-0.2268,-0.2265,-0.2291,-0.2281,-0.2297,-0.23,-0.231,-0.229,-0.2286,-0.2283,-0.2298,-0.2294,-0.2291,0,0,0,0,0,0,-0.2221,-0.2236,-0.2241,-0.224,-0.2249,-0.2257,-0.2255,-0.2262,-0.2259,-0.2259,-0.2274,-0.2277,-0.2275,-0.2276,-0.2294,-0.2282,-0.2288,-0.2285,-0.2299,-0.2295,-0.2292,-0.2304,-0.2327,0,0,0,0,0,-0.2216,-0.2217,-0.2233,-0.223,-0.2236,-0.2244,-0.2245,-0.2254,-0.2256,-0.2257,-0.2264,-0.2262,-0.2259,-0.2265,-0.2262,-0.2259,-0.225,-0.226,-0.2258,-0.2255,-0.2262,-0.2252,-0.225,-0.227,-0.227,-0.227,0,0,-0.2204,-0.2214,-0.2213,-0.2226,-0.223,-0.2242,-0.2247,-0.2252,-0.2259,-0.2261,-0.2262,-0.2255,-0.2252,-0.2248,-0.2247,-0.2255,-0.2236,-0.2251,-0.225,-0.2258,-0.2249,-0.2247,-0.2246,-0.2267,-0.2268,-0.2268,0,0,-0.2189,-0.2195,-0.2195,-0.2208,-0.2223,-0.2233,-0.2237,-0.2246,-0.225,-0.2245,-0.2245,-0.2235,-0.2234,-0.2234,-0.2234,-0.2207,-0.2219,-0.2205,-0.2212,-0.2202,-0.2202,-0.2201,-0.216,-0.2156,-0.2208,-0.2208,-0.2208,0,-0.2175,-0.2185,-0.2194,-0.2206,-0.222,-0.2232,-0.2245,-0.2246,-0.225,-0.2251,-0.2247,-0.2228,-0.2228,-0.2226,-0.2215,-0.2206,-0.2192,-0.2235,-0.2202,-0.2202,-0.2201,-0.2159,-0.2155,-0.2208,-0.2208,-0.2208,-0.2208,0,-0.2165,-0.2181,-0.2183,-0.2206,-0.2218,-0.223,-0.2247,-0.2251,-0.2253,-0.2253,-0.2244,-0.2228,-0.2222,-0.2214,-0.2211,-0.2205,-0.219,-0.2201,-0.2223,-0.2201,-0.2156,-0.2151,-0.2209,-0.2209,-0.2209,-0.2208,0,0,-0.2116,-0.2169,-0.2168,-0.2192,-0.2226,-0.2235,-0.225,-0.2265,-0.2271,-0.2261,-0.2262,-0.2243,-0.2234,-0.223,-0.2222,-0.2212,-0.2182,-0.2207,-0.2207,-0.2185,-0.2138,-0.2017,-0.2,-0.2197,-0.2196,-0.2196,-0.21,0,-0.2108,-0.2138,-0.2166,-0.2196,-0.2218,-0.2248,-0.2261,-0.2274,-0.2277,-0.2277,-0.2261,-0.2254,-0.2242,-0.2238,-0.2225,-0.22,-0.2173,-0.2205,-0.2146,-0.2143,-0.2056,-0.1992,-0.1895,-0.1792,-0.2095,-0.2094,-0.2094,0,-0.2083,-0.2116,-0.2147,-0.2209,-0.2219,-0.2236,-0.2268,-0.2283,-0.2291,-0.2292,-0.2287,-0.2276,-0.2257,-0.2248,-0.2194,-0.2218,-0.2176,-0.2148,-0.2145,-0.2029,-0.2014,-0.1865,-0.1772,-0.1774,-0.2086,-0.2087,-0.2087,0,-0.2038,-0.2099,-0.2127,-0.2147,-0.2211,-0.2228,-0.2259,-0.2279,-0.2296,-0.2303,-0.2302,-0.2286,-0.2262,-0.2232,-0.2155,-0.2187,-0.2075,-0.2116,-0.196,-0.1951,-0.1853,-0.1834,-0.1772,-0.2069,-0.2069,-0.2069,-0.2069,0,-0.2015,-0.2034,-0.2111,-0.2125,-0.2163,-0.2209,-0.2239,-0.2265,-0.2294,-0.2247,-0.2304,-0.2241,-0.2259,-0.219,-0.2147,-0.2006,-0.2063,-0.1939,-0.1914,-0.1847,-0.183,-0.1816,-0.186,-0.2065,-0.2066,-0.2067,-0.2068,0,-0.1944,-0.1999,-0.2038,-0.2114,-0.2143,-0.2163,-0.2243,-0.2245,-0.2287,-0.2228,-0.2227,-0.2219,-0.2112,-0.2098,-0.2015,-0.1962,-0.1826,-0.1802,-0.1698,-0.1662,-0.1537,-0.1585,-0.1505,-0.1463,-0.1638,-0.1634,-0.1631,0,-0.1907,-0.1918,-0.2013,-0.204,-0.2075,-0.2129,-0.2148,-0.2226,-0.2195,-0.2141,-0.2068,-0.2018,-0.1846,-0.173,-0.1686,-0.1593,-0.165,-0.1456,-0.1502,-0.1487,-0.1525,-0.1587,-0.1565,-0.1371,-0.1366,-0.1362,-0.1359,0,-0.1823,-0.1857,-0.1891,-0.1948,-0.1985,-0.198,-0.199,-0.1983,-0.1966,-0.1871,-0.1628,-0.1503,-0.1462,-0.1322,-0.1319,-0.1266,-0.1432,-0.1367,-0.1395,-0.1329,-0.1353,-0.1314,-0.147,-0.1323,-0.1326,-0.1329,-0.1331,-0.1332,-0.1742,-0.1751,-0.1788,-0.1831,-0.1833,-0.1712,-0.1646,-0.1588,-0.1426,-0.1178,-0.1151,-0.0874,-0.0986,-0.0964,-0.095,-0.1017,-0.1126,-0.1022,-0.1084,-0.115,-0.1099,-0.1145,-0.0947,-0.0949,-0.095,-0.0951,-0.0952,0,-0.1617,-0.1633,-0.1665,-0.1636,-0.1523,-0.157,-0.1437,-0.1296,-0.0983,-0.0766,-0.0481,-0.0308,-0.0366,-0.0575,-0.0784,-0.0767,-0.0799,-0.0786,-0.0888,-0.0881,-0.0939,-0.0916,-0.065,-0.065,-0.065,-0.065,-0.065,-0.065,-0.155,-0.1528,-0.1549,-0.1321,-0.1262,-0.1007,-0.0873,-0.0669,-0.0481,-0.0065,0.0142,0.0234,-0.011,-0.0533,-0.0738,-0.0718,-0.0763,-0.0716,-0.0782,-0.0872,-0.0901,-0.0929,-0.0916,-0.0655,-0.0655,-0.068,-0.068,-0.0681]},{"header":{"parameterUnit":"m.s-1","parameterCategory":2,"la1":30.2991,"la2":30.254,"lo1":-89.0895,"lo2":-89.0444,"dy":0.0017,"dx":0.0017,"nx":28,"ny":28,"refTime":"2025-03-20T21:00:00:Z","depth":"0","parameterNumber":3,"parameterNumberName":"V-component_of_CURRENTS"},"data":[0,0,0,0,0,0,0,0,0,0,0,0,0,0,0,0,0,0,0,0,0,0,0,0,0,0,0,0,0,0,0,0,0,0,0,0,0,0,0,0,0,0,0,0,0,0,0,0,0,0,0,0,0,0,0,0,0,0,-0.0256,-0.0255,0,-0.0164,-0.0163,-0.0162,-0.0098,-0.0097,-0.0097,-0.0097,0.0129,0.0134,0.014,0,0,0,0,0,0,0,0,0,0,0,0,0,-0.0343,-0.0342,-0.0256,-0.0255,-0.0254,-0.0164,-0.0163,-0.0161,-0.0098,-0.0097,-0.0097,-0.0097,0.0127,0.0133,0.014,0,0,0,0,0,0,0,0,0,0,0,0,0,-0.0282,-0.0342,-0.0256,-0.0213,-0.0208,-0.0164,-0.0163,-0.0161,-0.0098,-0.0097,-0.0097,-0.0096,0.0124,0.0133,0.0141,0.0183,0,0,0.0167,0.0171,0,0,0,0,0,0,0,0,-0.0286,-0.0279,-0.022,-0.0216,-0.021,-0.0143,-0.0111,-0.004,-0.0098,-0.0138,-0.0097,-0.0096,0.0049,0.0063,0.008,0.0194,0.0203,0.0168,0.0173,0.0177,0.0179,0,0,0,0,0,0,0,-0.029,-0.0283,-0.0218,-0.0219,-0.0213,-0.0186,-0.0177,-0.0097,-0.0045,-0.0135,-0.013,-0.0122,0.0053,0.0071,0.0086,0.0207,0.0168,0.0175,0.018,0.0184,0.0332,0.0331,0,0,0,0,0,0,-0.0307,-0.0287,-0.0221,-0.0216,-0.0249,-0.0185,-0.0175,-0.0164,-0.0049,-0.0032,-0.0123,-0.012,0.0056,0.0076,0.0094,0.0133,0.0177,0.0185,0.0189,0.0333,0.0332,0.0331,0,0,0,0,0,0,-0.0309,-0.0302,-0.0225,-0.025,-0.0239,-0.0185,-0.0173,-0.0163,-0.0143,-0.0042,-0.0022,-0.0114,0.0058,0.0082,0.0143,0.0143,0.0188,0.0196,0.0335,0.0333,0.0331,0.0222,0,0,0,0,0,0,-0.0312,-0.0303,-0.0302,-0.0251,-0.0238,-0.0204,-0.0173,-0.0161,-0.014,-0.0135,-0.0027,-0.0006,0.006,0.0129,0.0151,0.0155,0.0203,0.0336,0.0334,0.0332,0.0227,0.0217,0.0208,0,0,0,0,0,-0.0315,-0.0315,-0.0302,-0.0295,-0.0238,-0.0205,-0.0195,-0.0154,-0.014,-0.0134,-0.0078,-0.0009,0.0131,0.0135,0.0161,0.0168,0.0337,0.0334,0.0332,0.0232,0.0219,0.0209,0,0,0,0,0,0,-0.0349,-0.0307,-0.0292,-0.0279,-0.0248,-0.0194,-0.0185,-0.016,-0.0113,-0.0106,-0.0017,0.0008,0.0059,0.0122,0.0124,0.02,0.0243,0.0246,0.0158,0.0147,0.0138,0.0128,0.021,0,0,0,0,0,-0.0359,-0.0349,-0.0306,-0.0296,-0.0284,-0.0238,-0.022,-0.0194,-0.0146,-0.0125,-0.0056,0.0012,0.0069,0.0112,0.0175,0.0226,0.0288,0.0243,0.0233,0.0225,0.0231,0.029,0.0286,0.0322,0.0322,0.0322,0,0,-0.0369,-0.0346,-0.034,-0.0304,-0.0276,-0.0268,-0.0225,-0.0203,-0.0194,-0.0105,-0.007,-0.0013,0.0071,0.0116,0.0145,0.0172,0.0247,0.0221,0.0214,0.0225,0.0287,0.0283,0.0281,0.032,0.032,0.0321,0,0,-0.0395,-0.0367,-0.0373,-0.0353,-0.0321,-0.0291,-0.0289,-0.0241,-0.0216,-0.0178,-0.0124,-0.0077,0.0023,0.0072,0.0112,0.009,0.0189,0.0111,0.0069,0.0124,0.0122,0.0121,0.0197,0.0203,0.0112,0.0112,0.0112,0,-0.0412,-0.0415,-0.037,-0.0374,-0.0366,-0.0308,-0.0318,-0.0283,-0.0223,-0.0203,-0.0179,-0.0067,0.0002,0.0052,0.0036,0.0073,0.0125,0.0106,0.0113,0.0113,0.0114,0.0192,0.02,0.0106,0.0107,0.0107,0.0108,0,-0.0445,-0.045,-0.0452,-0.044,-0.0421,-0.042,-0.0371,-0.0347,-0.0311,-0.0271,-0.0217,-0.0139,-0.0072,-0.0049,-0.0008,0.0027,0.0069,0.0088,0.0141,0.0104,0.0188,0.0199,0.0098,0.01,0.0102,0.0103,0,0,-0.048,-0.048,-0.0481,-0.0497,-0.0461,-0.0451,-0.0432,-0.0398,-0.0379,-0.032,-0.0293,-0.0216,-0.0171,-0.0126,-0.0069,-0.0019,0.0027,0.0029,0.0035,0.0104,0.0167,0.02,0.0217,0.0044,0.0046,0.0046,0.0224,0,-0.0526,-0.0568,-0.0541,-0.0572,-0.0592,-0.0535,-0.0519,-0.0474,-0.0419,-0.0373,-0.0295,-0.0238,-0.02,-0.0165,-0.012,-0.0004,0.005,-0.0022,0.0194,0.0201,0.0235,0.0228,0.0286,0.0448,0.0235,0.0237,0.0239,0,-0.0571,-0.0597,-0.0646,-0.0651,-0.065,-0.065,-0.0612,-0.0587,-0.0501,-0.0454,-0.0391,-0.031,-0.0229,-0.0195,-0.0025,-0.0073,0.0032,0.0122,0.0131,0.0211,0.0255,0.0452,0.0478,0.0587,0.0257,0.0255,0.0254,0,-0.0638,-0.0666,-0.0715,-0.0719,-0.0708,-0.0712,-0.0695,-0.062,-0.0565,-0.0501,-0.043,-0.0351,-0.0256,-0.0155,0.0025,0.0004,0.0226,0.0226,0.036,0.0366,0.0484,0.0497,0.0643,0.0344,0.0343,0.0343,0.0342,0,-0.0705,-0.0739,-0.0756,-0.0785,-0.0823,-0.0783,-0.077,-0.0741,-0.0635,-0.05,-0.0476,-0.0322,-0.0237,-0.0085,0.0025,0.0236,0.0232,0.0364,0.0411,0.0447,0.0453,0.061,0.0637,0.035,0.0348,0.0347,0.0346,0,-0.0769,-0.0782,-0.084,-0.0858,-0.0863,-0.0889,-0.0814,-0.0735,-0.0676,-0.0495,-0.0456,-0.0284,-0.0094,-0.0006,0.0202,0.0284,0.0535,0.0522,0.056,0.0606,0.0793,0.0811,0.1016,0.1114,0.0688,0.069,0.0692,0,-0.0808,-0.0849,-0.0903,-0.0911,-0.0923,-0.0929,-0.0857,-0.078,-0.0632,-0.0389,-0.0243,-0.008,0.0164,0.0388,0.0459,0.0599,0.0675,0.0767,0.0722,0.0822,0.0878,0.0882,0.095,0.0852,0.0855,0.0857,0.0859,0,-0.0877,-0.0895,-0.0941,-0.0956,-0.092,-0.0837,-0.0721,-0.0625,-0.0402,-0.0207,0.0165,0.0352,0.0514,0.0678,0.0722,0.0824,0.0852,0.0818,0.0924,0.1018,0.1035,0.1145,0.0725,0.0879,0.0877,0.0875,0.0874,0.0873,-0.0912,-0.0959,-0.0983,-0.0977,-0.089,-0.0678,-0.0569,-0.0352,-0.0085,0.0301,0.05,0.085,0.094,0.0996,0.1034,0.109,0.1047,0.1176,0.1195,0.1195,0.1264,0.0881,0.107,0.107,0.1069,0.1068,0.1068,0,-0.0935,-0.0954,-0.0965,-0.0892,-0.0701,-0.0664,-0.038,-0.0192,0.0178,0.0553,0.092,0.1334,0.1399,0.138,0.1365,0.1462,0.1487,0.153,0.1563,0.162,0.1306,0.1286,0.1526,0.1526,0.1526,0.1526,0.1526,0.1526,-0.0945,-0.0964,-0.0952,-0.069,-0.0578,-0.0255,-0.0064,0.0189,0.0472,0.1022,0.139,0.166,0.175,0.1716,0.1751,0.1782,0.1919,0.1892,0.1959,0.1737,0.1705,0.1674,0.1664,0.1979,0.198,0.2297,0.23,0.2302]}],[{"header":{"parameterUnit":"m.s-1","parameterCategory":2,"la1":30.2991,"la2":30.254,"lo1":-89.0895,"lo2":-89.0444,"dy":0.0017,"dx":0.0017,"nx":28,"ny":28,"refTime":"2025-03-20T21:00:00:Z","depth":"2","parameterNumber":2,"parameterNumberName":"U-component_of_CURRENTS"},"data":[0,0,0,0,0,0,0,0,0,0,0,0,0,0,0,0,0,0,0,0,0,0,0,0,0,0,0,0,0,0,0,0,0,0,0,0,0,0,0,0,0,0,0,0,0,0,0,0,0,0,0,0,0,0,0,0,0,0,-0.2106,-0.2106,0,-0.2114,-0.2114,-0.2114,-0.2125,-0.2126,-0.2126,-0.2126,-0.2105,-0.2104,-0.2103,0,0,0,0,0,0,0,0,0,0,0,0,0,-0.2077,-0.2077,-0.2106,-0.2106,-0.2106,-0.2114,-0.2114,-0.2114,-0.2125,-0.2126,-0.2126,-0.2127,-0.2105,-0.2104,-0.2103,0,0,0,0,0,0,0,0,0,0,0,0,0,-0.2086,-0.2078,-0.2106,-0.2114,-0.2115,-0.2114,-0.2114,-0.2114,-0.2125,-0.2126,-0.2126,-0.2127,-0.2105,-0.2104,-0.2102,-0.2082,0,0,-0.2098,-0.2098,0,0,0,0,0,0,0,0,-0.2085,-0.2087,-0.2113,-0.2114,-0.2115,-0.2121,-0.2096,-0.2103,-0.2125,-0.2119,-0.2126,-0.2127,-0.2108,-0.2107,-0.2104,-0.2081,-0.208,-0.2098,-0.2097,-0.2097,-0.2096,0,0,0,0,0,0,0,-0.2085,-0.2086,-0.2107,-0.2113,-0.2114,-0.2111,-0.2112,-0.2097,-0.2108,-0.212,-0.2121,-0.2125,-0.2108,-0.2106,-0.2104,-0.208,-0.2098,-0.2097,-0.2096,-0.2095,-0.2066,-0.2066,0,0,0,0,0,0,-0.2089,-0.2086,-0.2107,-0.2107,-0.2104,-0.2111,-0.2113,-0.2117,-0.2109,-0.2109,-0.2125,-0.2126,-0.2108,-0.2105,-0.2103,-0.2103,-0.2097,-0.2095,-0.2094,-0.2066,-0.2066,-0.2066,0,0,0,0,0,0,-0.2088,-0.209,-0.2106,-0.2098,-0.2101,-0.2111,-0.2115,-0.2117,-0.2121,-0.2114,-0.2113,-0.2129,-0.2108,-0.2105,-0.2098,-0.2102,-0.2095,-0.2093,-0.2066,-0.2066,-0.2066,-0.2087,0,0,0,0,0,0,-0.2087,-0.209,-0.209,-0.2099,-0.2101,-0.2112,-0.2115,-0.2117,-0.2123,-0.2125,-0.2116,-0.2115,-0.2108,-0.2101,-0.2097,-0.2099,-0.2092,-0.2066,-0.2066,-0.2066,-0.2087,-0.2088,-0.209,0,0,0,0,0,-0.2086,-0.2085,-0.209,-0.2093,-0.2103,-0.2113,-0.2113,-0.2121,-0.2123,-0.2126,-0.2122,-0.2115,-0.2099,-0.2099,-0.2095,-0.2097,-0.2066,-0.2066,-0.2066,-0.2086,-0.2088,-0.209,0,0,0,0,0,0,-0.207,-0.2087,-0.2093,-0.2096,-0.2108,-0.2116,-0.2116,-0.2123,-0.2121,-0.2121,-0.2113,-0.2111,-0.2108,-0.2097,-0.2098,-0.2089,-0.2082,-0.2081,-0.2099,-0.21,-0.2102,-0.2105,-0.2091,0,0,0,0,0,-0.2068,-0.2072,-0.2089,-0.2091,-0.2097,-0.2107,-0.211,-0.2119,-0.2121,-0.2121,-0.2116,-0.2109,-0.2103,-0.2099,-0.209,-0.2081,-0.2064,-0.208,-0.2082,-0.2083,-0.2083,-0.2073,-0.2073,-0.2067,-0.2067,-0.2067,0,0,-0.206,-0.207,-0.2071,-0.2088,-0.2094,-0.2107,-0.211,-0.2119,-0.2129,-0.2117,-0.212,-0.2112,-0.2102,-0.2098,-0.2095,-0.2091,-0.2071,-0.2083,-0.2085,-0.2084,-0.2073,-0.2074,-0.2074,-0.2067,-0.2067,-0.2067,0,0,-0.2049,-0.2058,-0.2061,-0.2076,-0.2094,-0.2103,-0.2109,-0.2121,-0.2126,-0.2128,-0.2125,-0.2119,-0.2107,-0.2104,-0.21,-0.2101,-0.2081,-0.21,-0.2109,-0.2098,-0.2099,-0.2099,-0.2059,-0.2055,-0.21,-0.21,-0.21,0,-0.2039,-0.2052,-0.2063,-0.2077,-0.2091,-0.2104,-0.2119,-0.2124,-0.2132,-0.2135,-0.2132,-0.2121,-0.211,-0.211,-0.2112,-0.2105,-0.2087,-0.2104,-0.2101,-0.2101,-0.2101,-0.2059,-0.2055,-0.2101,-0.2101,-0.2101,-0.21,0,-0.2037,-0.2054,-0.2057,-0.2082,-0.2097,-0.2111,-0.213,-0.2138,-0.2143,-0.2148,-0.2148,-0.2134,-0.213,-0.2125,-0.2118,-0.2116,-0.2098,-0.2105,-0.2097,-0.2103,-0.2058,-0.2053,-0.2102,-0.2102,-0.2102,-0.2101,0,0,-0.1996,-0.2048,-0.2048,-0.2071,-0.2106,-0.2116,-0.2136,-0.2156,-0.2167,-0.2165,-0.2171,-0.2159,-0.2153,-0.2148,-0.2139,-0.2127,-0.2103,-0.2118,-0.2117,-0.2078,-0.2059,-0.195,-0.1934,-0.2115,-0.2115,-0.2115,-0.2021,0,-0.1992,-0.2025,-0.2051,-0.2082,-0.2104,-0.2134,-0.2152,-0.2171,-0.2179,-0.2185,-0.2174,-0.2173,-0.2163,-0.216,-0.2148,-0.212,-0.2095,-0.2126,-0.2058,-0.2055,-0.196,-0.1927,-0.1803,-0.1701,-0.2016,-0.2015,-0.2015,0,-0.1977,-0.2007,-0.204,-0.2099,-0.2109,-0.2129,-0.2165,-0.2184,-0.2199,-0.2205,-0.2204,-0.2197,-0.218,-0.2171,-0.2119,-0.2141,-0.21,-0.2071,-0.2068,-0.1957,-0.1938,-0.175,-0.168,-0.2007,-0.2007,-0.2008,-0.2008,0,-0.1939,-0.1997,-0.2025,-0.2044,-0.2107,-0.2126,-0.2154,-0.2184,-0.2198,-0.2214,-0.2215,-0.2206,-0.2181,-0.2154,-0.2083,-0.2109,-0.2007,-0.2038,-0.1895,-0.1886,-0.176,-0.174,-0.1994,-0.1994,-0.1994,-0.1994,-0.1995,0,-0.1923,-0.1943,-0.2012,-0.2027,-0.2058,-0.211,-0.2136,-0.2164,-0.2196,-0.2193,-0.2218,-0.2197,-0.2177,-0.2116,-0.2075,-0.1944,-0.1996,-0.1877,-0.1852,-0.176,-0.1742,-0.2002,-0.2004,-0.1991,-0.1992,-0.1992,-0.1993,0,-0.1867,-0.1917,-0.1952,-0.2021,-0.204,-0.2059,-0.2121,-0.2124,-0.2178,-0.2173,-0.2176,-0.2174,-0.2085,-0.2032,-0.1954,-0.1902,-0.1815,-0.1755,-0.1626,-0.1587,-0.1708,-0.1713,-0.1604,-0.16,-0.1596,-0.1592,-0.159,0,-0.1839,-0.1852,-0.1925,-0.193,-0.1958,-0.1999,-0.2008,-0.2091,-0.2092,-0.2139,-0.2109,-0.2057,-0.1977,-0.1815,-0.1692,-0.1565,-0.1664,-0.14,-0.1433,-0.168,-0.1668,-0.1678,-0.1688,-0.1269,-0.1264,-0.126,-0.1256,0,-0.1772,-0.18,-0.1822,-0.1834,-0.1849,-0.1878,-0.1904,-0.1915,-0.1985,-0.1999,-0.198,-0.1941,-0.1773,-0.1568,-0.139,-0.1317,-0.1418,-0.1309,-0.1591,-0.1387,-0.1356,-0.1347,-0.1369,-0.1218,-0.1222,-0.1225,-0.1227,-0.1228,-0.1699,-0.1694,-0.1709,-0.1707,-0.1723,-0.1712,-0.1688,-0.1726,-0.1731,-0.171,-0.1785,-0.1679,-0.1608,-0.126,-0.113,-0.1004,-0.1116,-0.1092,-0.1108,-0.1129,-0.1107,-0.107,-0.0874,-0.0875,-0.0877,-0.0878,-0.0879,0,-0.1586,-0.1577,-0.1568,-0.1555,-0.1504,-0.1568,-0.1565,-0.1515,-0.1468,-0.1487,-0.1473,-0.1298,-0.1127,-0.1039,-0.0775,-0.0707,-0.0738,-0.0687,-0.0751,-0.0787,-0.0819,-0.0787,-0.0466,-0.0465,-0.0464,-0.0463,0,0,-0.1519,-0.146,-0.145,-0.1323,-0.1309,-0.121,-0.1182,-0.115,-0.1133,-0.107,-0.1031,-0.1116,-0.1059,-0.0815,-0.0707,-0.0543,-0.0675,-0.0506,-0.0836,-0.0951,-0.0983,-0.1041,-0.1027,0,0,0,0,0]},{"header":{"parameterUnit":"m.s-1","parameterCategory":2,"la1":30.2991,"la2":30.254,"lo1":-89.0895,"lo2":-89.0444,"dy":0.0017,"dx":0.0017,"nx":28,"ny":28,"refTime":"2025-03-20T21:00:00:Z","depth":"2","parameterNumber":3,"parameterNumberName":"V-component_of_CURRENTS"},"data":[0,0,0,0,0,0,0,0,0,0,0,0,0,0,0,0,0,0,0,0,0,0,0,0,0,0,0,0,0,0,0,0,0,0,0,0,0,0,0,0,0,0,0,0,0,0,0,0,0,0,0,0,0,0,0,0,0,0,-0.0351,-0.035,0,-0.027,-0.0269,-0.0268,-0.0219,-0.0218,-0.0218,-0.0218,-0.011,-0.0107,-0.0104,0,0,0,0,0,0,0,0,0,0,0,0,0,-0.0424,-0.0423,-0.0351,-0.035,-0.0349,-0.0271,-0.0269,-0.0268,-0.0219,-0.0218,-0.0218,-0.0218,-0.011,-0.0107,-0.0104,0,0,0,0,0,0,0,0,0,0,0,0,0,-0.0372,-0.0423,-0.0351,-0.0316,-0.0312,-0.0271,-0.0269,-0.0268,-0.0219,-0.0218,-0.0218,-0.0218,-0.0111,-0.0108,-0.0103,-0.0083,0,0,-0.0091,-0.0089,0,0,0,0,0,0,0,0,-0.0375,-0.0369,-0.0322,-0.0318,-0.0314,-0.0255,-0.0255,-0.0205,-0.0219,-0.0253,-0.0218,-0.0218,-0.0156,-0.0149,-0.0133,-0.0078,-0.0074,-0.0091,-0.0088,-0.0086,-0.0085,0,0,0,0,0,0,0,-0.0379,-0.0372,-0.0318,-0.0321,-0.0316,-0.0291,-0.0284,-0.0245,-0.0206,-0.025,-0.0247,-0.0239,-0.0154,-0.0137,-0.013,-0.0072,-0.0091,-0.0087,-0.0085,-0.0083,0.0031,0.0032,0,0,0,0,0,0,-0.0393,-0.0376,-0.0321,-0.0316,-0.0346,-0.029,-0.0282,-0.0273,-0.0207,-0.0197,-0.024,-0.0237,-0.0144,-0.0135,-0.0126,-0.0094,-0.0086,-0.0083,-0.008,0.0031,0.0031,0.0032,0,0,0,0,0,0,-0.0395,-0.0389,-0.0324,-0.0345,-0.0335,-0.029,-0.028,-0.0272,-0.0256,-0.0199,-0.0189,-0.0232,-0.0144,-0.0132,-0.0089,-0.0089,-0.0081,-0.0077,0.003,0.0031,0.0032,-0.0032,0,0,0,0,0,0,-0.0397,-0.039,-0.039,-0.0346,-0.0334,-0.0306,-0.028,-0.0271,-0.0252,-0.0248,-0.0189,-0.0179,-0.0143,-0.0095,-0.0085,-0.0084,-0.0074,0.0029,0.003,0.0031,-0.0031,-0.0033,-0.0036,0,0,0,0,0,-0.04,-0.0402,-0.0391,-0.0384,-0.0336,-0.0306,-0.0298,-0.0264,-0.0252,-0.0248,-0.0203,-0.0181,-0.0081,-0.0092,-0.0079,-0.0077,0.0029,0.003,0.0031,-0.0029,-0.0033,-0.0036,0,0,0,0,0,0,-0.0433,-0.0396,-0.0383,-0.0373,-0.0345,-0.0298,-0.0291,-0.0269,-0.0231,-0.0226,-0.0174,-0.016,-0.0124,-0.0088,-0.0101,-0.0039,-0.0022,-0.0018,-0.0072,-0.0075,-0.0077,-0.0093,-0.007,0,0,0,0,0,-0.0442,-0.0435,-0.0395,-0.0389,-0.0377,-0.0336,-0.0321,-0.0298,-0.0258,-0.0242,-0.02,-0.0151,-0.0108,-0.0083,-0.0042,-0.0008,0.003,0.0004,0.0001,-0.0002,-0.0004,0.005,0.0051,0.0036,0.0036,0.0036,0,0,-0.0453,-0.0432,-0.0428,-0.0396,-0.0371,-0.0358,-0.0326,-0.0306,-0.0292,-0.0235,-0.0204,-0.0162,-0.0101,-0.0064,-0.0044,-0.0035,0.0024,-0.0,-0.0003,-0.0004,0.0051,0.0053,0.0054,0.0037,0.0037,0.0037,0,0,-0.0474,-0.0454,-0.0456,-0.0437,-0.0406,-0.0378,-0.0376,-0.0332,-0.0309,-0.0275,-0.0229,-0.0186,-0.0123,-0.0078,-0.0048,-0.0037,0.0006,-0.0025,-0.0048,0.0004,0.0006,0.0007,0.0058,0.0064,-0.0023,-0.0023,-0.0023,0,-0.0491,-0.0487,-0.0453,-0.045,-0.0438,-0.0392,-0.0391,-0.036,-0.0307,-0.0286,-0.0273,-0.0174,-0.0129,-0.0074,-0.0071,-0.0044,-0.001,-0.0046,-0.0001,0.0001,0.0004,0.0056,0.0064,-0.0026,-0.0026,-0.0026,-0.0025,0,-0.0511,-0.051,-0.051,-0.0491,-0.0472,-0.0465,-0.042,-0.0397,-0.0366,-0.0329,-0.0275,-0.021,-0.0151,-0.0129,-0.0097,-0.0053,-0.0033,-0.0017,-0.0001,0.0001,0.0056,0.0066,-0.003,-0.0029,-0.0028,-0.0028,0,0,-0.0544,-0.0529,-0.053,-0.0533,-0.0495,-0.0483,-0.0458,-0.0418,-0.0397,-0.0345,-0.0313,-0.0239,-0.0205,-0.0167,-0.0119,-0.0072,-0.0024,-0.0044,-0.004,-0.0007,0.009,0.011,0.0123,-0.0005,-0.0004,-0.0003,0.012,0,-0.0573,-0.0591,-0.0564,-0.0573,-0.0579,-0.053,-0.0508,-0.0464,-0.0416,-0.0373,-0.03,-0.0251,-0.0218,-0.0191,-0.0141,-0.0053,-0.0002,-0.0059,0.0095,0.01,0.0107,0.0134,0.0116,0.0223,0.013,0.0131,0.0132,0,-0.0602,-0.0612,-0.0635,-0.0621,-0.0616,-0.061,-0.0568,-0.054,-0.0462,-0.0424,-0.0363,-0.0301,-0.0224,-0.0199,-0.0054,-0.0094,-0.0011,0.0058,0.0065,0.0111,0.0138,0.0209,0.0245,0.0149,0.0148,0.0146,0.0145,0,-0.0654,-0.0657,-0.0682,-0.0679,-0.0655,-0.0651,-0.063,-0.0563,-0.0533,-0.0458,-0.0421,-0.0326,-0.0264,-0.0163,-0.0025,-0.0038,0.0137,0.0142,0.0244,0.0247,0.0277,0.028,0.0248,0.0248,0.0247,0.0247,0.0247,0,-0.07,-0.0716,-0.0715,-0.0731,-0.0751,-0.0707,-0.0701,-0.0661,-0.0593,-0.0561,-0.0458,-0.0399,-0.0252,-0.0132,-0.0027,0.014,0.0142,0.0248,0.0283,0.0255,0.0255,0.0224,0.0219,0.0252,0.0251,0.025,0.0249,0,-0.0755,-0.0753,-0.0786,-0.0783,-0.0782,-0.0799,-0.0763,-0.0751,-0.0672,-0.0626,-0.0602,-0.044,-0.0277,-0.012,0.007,0.0154,0.0299,0.036,0.0316,0.0342,0.0373,0.0364,0.0482,0.0484,0.0486,0.0487,0.0488,0,-0.0785,-0.0811,-0.084,-0.0864,-0.0869,-0.0878,-0.088,-0.0813,-0.0794,-0.065,-0.0634,-0.0445,-0.0313,-0.0016,0.0174,0.0378,0.037,0.0469,0.0441,0.0377,0.0399,0.0387,0.0377,0.0463,0.0464,0.0464,0.0465,0,-0.0844,-0.0857,-0.0887,-0.094,-0.0966,-0.0979,-0.0975,-0.0965,-0.0877,-0.0809,-0.0683,-0.0555,-0.024,0.0003,0.0284,0.0396,0.0427,0.0488,0.0456,0.0395,0.0366,0.0384,0.0374,0.047,0.047,0.047,0.0469,0.0469,-0.0884,-0.0925,-0.0965,-0.1009,-0.1041,-0.106,-0.1056,-0.103,-0.098,-0.0842,-0.0751,-0.0519,-0.0276,0.0151,0.0332,0.0521,0.0518,0.0549,0.0544,0.0539,0.0504,0.0478,0.0598,0.0598,0.0598,0.0598,0.0598,0,-0.0927,-0.0965,-0.102,-0.1068,-0.1102,-0.1102,-0.1097,-0.1057,-0.0994,-0.0854,-0.0724,-0.0441,-0.0149,0.0131,0.0436,0.0585,0.057,0.0604,0.0549,0.0543,0.0538,0.0499,0.0594,0.0594,0.0594,0.0594,0,0,-0.0948,-0.1009,-0.1036,-0.1097,-0.1125,-0.1134,-0.1122,-0.1052,-0.0938,-0.077,-0.0595,-0.0423,-0.0095,0.0095,0.0296,0.0465,0.0459,0.0479,0.0469,0.0375,0.0367,0.0497,0.0431,0,0,0,0,0]}],[{"header":{"parameterUnit":"m.s-1","parameterCategory":2,"la1":30.2991,"la2":30.254,"lo1":-89.0895,"lo2":-89.0444,"dy":0.0017,"dx":0.0017,"nx":28,"ny":28,"refTime":"2025-03-20T21:00:00:Z","depth":"4","parameterNumber":2,"parameterNumberName":"U-component_of_CURRENTS"},"data":[0,0,0,0,0,0,0,0,0,0,0,0,0,0,0,0,0,0,0,0,0,0,0,0,0,0,0,0,0,0,0,0,0,0,0,0,0,0,0,0,0,0,0,0,0,0,0,0,0,0,0,0,0,0,0,0,0,0,-0.1547,-0.1548,0,-0.1596,-0.1596,-0.1597,-0.1648,-0.1649,-0.165,-0.165,-0.1674,-0.1674,-0.1674,0,0,0,0,0,0,0,0,0,0,0,0,0,-0.1481,-0.1482,-0.1547,-0.1548,-0.1549,-0.1596,-0.1596,-0.1597,-0.1648,-0.1649,-0.165,-0.1651,-0.1674,-0.1674,-0.1674,0,0,0,0,0,0,0,0,0,0,0,0,0,-0.1516,-0.1482,-0.1547,-0.1581,-0.1585,-0.1596,-0.1596,-0.1597,-0.1647,-0.1649,-0.165,-0.1651,-0.1674,-0.1674,-0.1673,-0.1646,0,0,-0.1673,-0.1673,0,0,0,0,0,0,0,0,-0.1514,-0.1518,-0.1575,-0.1579,-0.1583,-0.1619,-0.1582,-0.1613,-0.1647,-0.1622,-0.165,-0.1652,-0.1653,-0.1655,-0.1659,-0.1647,-0.1648,-0.1673,-0.1672,-0.1672,-0.1672,0,0,0,0,0,0,0,-0.1511,-0.1516,-0.1565,-0.1576,-0.1581,-0.1588,-0.1594,-0.1588,-0.1628,-0.1624,-0.1628,-0.1636,-0.1655,-0.1659,-0.166,-0.1648,-0.1673,-0.1672,-0.1672,-0.1672,-0.1704,-0.1705,0,0,0,0,0,0,-0.1508,-0.1514,-0.1563,-0.1566,-0.1553,-0.1588,-0.1595,-0.1604,-0.1629,-0.1634,-0.1635,-0.1638,-0.1659,-0.166,-0.1661,-0.1705,-0.1672,-0.1672,-0.1672,-0.1703,-0.1704,-0.1705,0,0,0,0,0,0,-0.1507,-0.1512,-0.1561,-0.1542,-0.155,-0.1588,-0.1598,-0.1605,-0.1639,-0.1637,-0.1643,-0.1666,-0.166,-0.1661,-0.1686,-0.1704,-0.1672,-0.1672,-0.1702,-0.1703,-0.1705,-0.1745,0,0,0,0,0,0,-0.1504,-0.1511,-0.1528,-0.1542,-0.1551,-0.1587,-0.1597,-0.1605,-0.164,-0.1646,-0.1664,-0.1667,-0.1661,-0.1687,-0.1686,-0.1703,-0.1672,-0.17,-0.1702,-0.1704,-0.1743,-0.1748,-0.1752,0,0,0,0,0,-0.1502,-0.1514,-0.1528,-0.1535,-0.1568,-0.1588,-0.1593,-0.1623,-0.1641,-0.1658,-0.1677,-0.1668,-0.1698,-0.1688,-0.1686,-0.1703,-0.1699,-0.1702,-0.1704,-0.174,-0.1747,-0.1752,0,0,0,0,0,0,-0.1494,-0.1521,-0.1537,-0.1558,-0.1582,-0.1598,-0.1618,-0.1636,-0.1664,-0.1678,-0.1678,-0.1681,-0.171,-0.1701,-0.1689,-0.1719,-0.1698,-0.17,-0.1726,-0.1732,-0.1737,-0.173,-0.1671,0,0,0,0,0,-0.1499,-0.1519,-0.1542,-0.1562,-0.1576,-0.1602,-0.1619,-0.164,-0.166,-0.1676,-0.169,-0.1703,-0.1711,-0.172,-0.1725,-0.1737,-0.1711,-0.1748,-0.1753,-0.1757,-0.1752,-0.1742,-0.1745,-0.1713,-0.1712,-0.1712,0,0,-0.1502,-0.152,-0.1532,-0.1563,-0.1584,-0.1607,-0.1616,-0.1649,-0.1673,-0.1671,-0.1714,-0.1721,-0.172,-0.174,-0.1751,-0.1739,-0.1751,-0.176,-0.1764,-0.1756,-0.1744,-0.1747,-0.175,-0.1714,-0.1714,-0.1714,0,0,-0.1508,-0.1534,-0.1552,-0.1575,-0.1612,-0.1626,-0.1642,-0.1675,-0.1699,-0.1732,-0.174,-0.176,-0.1776,-0.1777,-0.1778,-0.181,-0.1779,-0.1819,-0.1835,-0.1827,-0.1829,-0.183,-0.179,-0.1787,-0.182,-0.182,-0.182,0,-0.1514,-0.154,-0.1561,-0.1585,-0.1608,-0.1639,-0.1664,-0.1687,-0.1727,-0.1742,-0.1755,-0.1787,-0.1789,-0.1803,-0.182,-0.182,-0.1801,-0.1813,-0.1832,-0.1833,-0.1834,-0.1792,-0.1789,-0.1822,-0.1822,-0.1821,-0.1821,0,-0.1526,-0.1561,-0.1574,-0.1615,-0.164,-0.1668,-0.17,-0.1732,-0.1764,-0.1782,-0.1818,-0.1825,-0.184,-0.1849,-0.1845,-0.1858,-0.1836,-0.1839,-0.1814,-0.1839,-0.1794,-0.179,-0.1825,-0.1824,-0.1824,-0.1823,0,0,-0.1501,-0.1571,-0.1579,-0.1608,-0.1662,-0.1679,-0.1722,-0.1759,-0.1787,-0.1824,-0.1849,-0.1872,-0.1879,-0.188,-0.1881,-0.1876,-0.1865,-0.1865,-0.1864,-0.1818,-0.1824,-0.1694,-0.1676,-0.1877,-0.1877,-0.1877,-0.1784,0,-0.1509,-0.1559,-0.1592,-0.1644,-0.1672,-0.1715,-0.1749,-0.1787,-0.1819,-0.1849,-0.1862,-0.1887,-0.1889,-0.1902,-0.1899,-0.1878,-0.1859,-0.1888,-0.1811,-0.1808,-0.1684,-0.1669,-0.1877,-0.1781,-0.178,-0.1779,-0.1779,0,-0.1505,-0.1542,-0.1596,-0.1664,-0.168,-0.1716,-0.1772,-0.1807,-0.1849,-0.1873,-0.1898,-0.1909,-0.1912,-0.1913,-0.1876,-0.1898,-0.1862,-0.1839,-0.1835,-0.1694,-0.167,-0.1754,-0.1771,-0.1772,-0.1772,-0.1773,-0.1773,0,-0.1465,-0.1541,-0.1586,-0.1611,-0.1689,-0.1723,-0.1763,-0.1815,-0.1843,-0.1887,-0.1903,-0.1916,-0.191,-0.1892,-0.1842,-0.1866,-0.1781,-0.1806,-0.1648,-0.1638,-0.1767,-0.1766,-0.1768,-0.1768,-0.1769,-0.1769,-0.1769,0,-0.1445,-0.1484,-0.1578,-0.1601,-0.1649,-0.1711,-0.176,-0.18,-0.1852,-0.1858,-0.1911,-0.1899,-0.1907,-0.1862,-0.1832,-0.1703,-0.1767,-0.163,-0.1602,-0.1784,-0.1787,-0.1762,-0.1763,-0.1765,-0.1766,-0.1767,-0.1767,0,-0.1389,-0.1456,-0.1511,-0.1604,-0.1633,-0.1667,-0.1753,-0.1767,-0.184,-0.1845,-0.1857,-0.1876,-0.1802,-0.1777,-0.1714,-0.1655,-0.1574,-0.1513,-0.1676,-0.1662,-0.1442,-0.1446,-0.1332,-0.1326,-0.1321,-0.1318,-0.1314,0,-0.136,-0.1387,-0.1495,-0.1516,-0.1561,-0.1625,-0.1647,-0.1742,-0.1747,-0.1803,-0.1773,-0.1744,-0.1728,-0.1525,-0.1529,-0.1428,-0.1416,-0.1369,-0.1436,-0.1411,-0.1396,-0.1407,-0.1417,-0.1307,-0.1306,-0.1305,-0.1303,0,-0.1296,-0.1351,-0.1388,-0.143,-0.1467,-0.1507,-0.155,-0.155,-0.1623,-0.1712,-0.1638,-0.1589,-0.1486,-0.1419,-0.1328,-0.1276,-0.1406,-0.1322,-0.1332,-0.1395,-0.138,-0.1372,-0.1388,-0.1287,-0.129,-0.1291,-0.1292,0,-0.1239,-0.1245,-0.129,-0.131,-0.1354,-0.1345,-0.1403,-0.1393,-0.1422,-0.1496,-0.1459,-0.1436,-0.1459,-0.1336,-0.1266,-0.1183,-0.1179,-0.1164,-0.1183,-0.12,-0.1199,-0.1163,-0.0959,0,0,0,0,0,-0.1169,-0.1146,-0.1156,-0.1164,-0.1202,-0.1224,-0.1298,-0.1355,-0.1437,-0.1341,-0.1403,-0.1308,-0.1206,-0.1205,-0.1084,-0.1187,-0.1172,-0.1044,-0.1164,-0.1199,-0.1217,-0.1227,0,0,0,0,0,0,-0.1113,-0.112,-0.1107,-0.1026,-0.1002,-0.1024,-0.1068,-0.1135,-0.1103,-0.1198,-0.1142,-0.1223,-0.113,-0.1228,-0.1049,-0.1044,-0.1093,-0.1048,-0.1044,-0.1188,-0.1205,-0.122,-0.1237,0,0,0,0,0]},{"header":{"parameterUnit":"m.s-1","parameterCategory":2,"la1":30.2991,"la2":30.254,"lo1":-89.0895,"lo2":-89.0444,"dy":0.0017,"dx":0.0017,"nx":28,"ny":28,"refTime":"2025-03-20T21:00:00:Z","depth":"4","parameterNumber":3,"parameterNumberName":"V-component_of_CURRENTS"},"data":[0,0,0,0,0,0,0,0,0,0,0,0,0,0,0,0,0,0,0,0,0,0,0,0,0,0,0,0,0,0,0,0,0,0,0,0,0,0,0,0,0,0,0,0,0,0,0,0,0,0,0,0,0,0,0,0,0,0,-0.028,-0.028,0,-0.023,-0.023,-0.0229,-0.0202,-0.0202,-0.0202,-0.0202,-0.0138,-0.0136,-0.0134,0,0,0,0,0,0,0,0,0,0,0,0,0,-0.0319,-0.0318,-0.028,-0.028,-0.0279,-0.023,-0.023,-0.0229,-0.0202,-0.0202,-0.0202,-0.0202,-0.0138,-0.0136,-0.0134,0,0,0,0,0,0,0,0,0,0,0,0,0,-0.0288,-0.0318,-0.028,-0.0261,-0.0258,-0.0231,-0.023,-0.0229,-0.0202,-0.0202,-0.0202,-0.0202,-0.0139,-0.0136,-0.0134,-0.0117,0,0,-0.0126,-0.0125,0,0,0,0,0,0,0,0,-0.029,-0.0287,-0.0264,-0.0262,-0.0259,-0.0223,-0.0219,-0.0191,-0.0202,-0.0223,-0.0202,-0.0202,-0.0165,-0.0161,-0.015,-0.0114,-0.0111,-0.0126,-0.0124,-0.0123,-0.0122,0,0,0,0,0,0,0,-0.0292,-0.0288,-0.026,-0.0264,-0.0261,-0.0243,-0.0239,-0.0214,-0.0194,-0.0221,-0.0219,-0.0215,-0.0164,-0.0153,-0.0149,-0.011,-0.0126,-0.0123,-0.0122,-0.0121,-0.0037,-0.0036,0,0,0,0,0,0,-0.0302,-0.0291,-0.0261,-0.0258,-0.0276,-0.0242,-0.0237,-0.0234,-0.0194,-0.0188,-0.0215,-0.0214,-0.0157,-0.0152,-0.0146,-0.0119,-0.0123,-0.012,-0.0119,-0.0038,-0.0037,-0.0036,0,0,0,0,0,0,-0.0303,-0.0299,-0.0263,-0.0274,-0.0268,-0.0242,-0.0238,-0.0233,-0.0226,-0.019,-0.0184,-0.0213,-0.0157,-0.015,-0.0122,-0.0116,-0.0119,-0.0117,-0.0038,-0.0037,-0.0036,-0.0068,0,0,0,0,0,0,-0.0304,-0.03,-0.0304,-0.0275,-0.0268,-0.0254,-0.0238,-0.0232,-0.0223,-0.0221,-0.0186,-0.018,-0.0157,-0.0126,-0.0119,-0.0113,-0.0115,-0.0039,-0.0038,-0.0037,-0.0067,-0.0068,-0.0068,0,0,0,0,0,-0.0305,-0.0311,-0.0305,-0.0302,-0.0274,-0.0254,-0.0249,-0.0229,-0.0223,-0.0223,-0.0193,-0.0181,-0.0113,-0.0123,-0.0116,-0.0108,-0.004,-0.0038,-0.0037,-0.0067,-0.0068,-0.0068,0,0,0,0,0,0,-0.033,-0.0308,-0.0301,-0.03,-0.0282,-0.025,-0.0249,-0.0234,-0.021,-0.0209,-0.0175,-0.0166,-0.014,-0.0117,-0.013,-0.0079,-0.0074,-0.007,-0.0099,-0.0099,-0.01,-0.0106,-0.0113,0,0,0,0,0,-0.0338,-0.0338,-0.0312,-0.0312,-0.0306,-0.0279,-0.027,-0.0256,-0.023,-0.022,-0.0193,-0.016,-0.0126,-0.0109,-0.0081,-0.0055,-0.003,-0.0043,-0.0043,-0.0044,-0.0043,0.0004,0.0008,-0.0031,-0.0031,-0.0031,0,0,-0.0349,-0.0337,-0.0337,-0.0318,-0.0303,-0.0292,-0.0273,-0.0263,-0.0249,-0.0216,-0.0193,-0.0164,-0.012,-0.009,-0.0076,-0.0072,-0.0021,-0.0042,-0.0043,-0.0041,0.0006,0.001,0.0013,-0.003,-0.003,-0.0031,0,0,-0.0366,-0.0359,-0.0362,-0.0349,-0.033,-0.0309,-0.0309,-0.028,-0.0264,-0.0239,-0.0206,-0.0172,-0.0131,-0.0091,-0.0066,-0.0049,-0.0027,-0.0044,-0.0049,-0.0003,-0.0,0.0003,0.0031,0.0037,-0.0041,-0.0041,-0.0041,0,-0.038,-0.0376,-0.036,-0.0355,-0.0345,-0.0319,-0.0314,-0.0292,-0.0256,-0.0238,-0.0238,-0.0159,-0.0127,-0.0071,-0.0066,-0.005,-0.003,-0.0054,-0.0005,-0.0001,0.0003,0.0031,0.0038,-0.0042,-0.0042,-0.0042,-0.0042,0,-0.039,-0.039,-0.0391,-0.0375,-0.0362,-0.0356,-0.0323,-0.0307,-0.0288,-0.026,-0.0214,-0.0167,-0.0119,-0.0102,-0.008,-0.0031,-0.0029,-0.0016,-0.0009,0.0004,0.0033,0.0041,-0.0044,-0.0044,-0.0043,-0.0043,0,0,-0.0414,-0.0401,-0.0403,-0.04,-0.0372,-0.0362,-0.0338,-0.0303,-0.0285,-0.0249,-0.0219,-0.0156,-0.0134,-0.0104,-0.0068,-0.0027,0.0015,-0.0016,-0.0013,0.0003,0.01,0.0085,0.0093,0.0031,0.0033,0.0034,0.0105,0,-0.0427,-0.0432,-0.0413,-0.0411,-0.0409,-0.0376,-0.0354,-0.032,-0.0288,-0.0254,-0.0196,-0.0159,-0.0133,-0.0115,-0.0068,-0.0008,0.0035,-0.0007,0.0093,0.0096,0.0074,0.0102,0.0039,0.0111,0.0113,0.0115,0.0116,0,-0.0439,-0.0441,-0.0448,-0.0429,-0.0424,-0.0419,-0.0382,-0.0358,-0.03,-0.0275,-0.0225,-0.0184,-0.0116,-0.0102,0.0012,-0.0021,0.0037,0.0084,0.0088,0.0092,0.0096,0.01,0.013,0.0129,0.0128,0.0127,0.0126,0,-0.0467,-0.0461,-0.0471,-0.0466,-0.0442,-0.0439,-0.0422,-0.0372,-0.0357,-0.0294,-0.028,-0.019,-0.0154,-0.0068,0.0025,0.0018,0.0144,0.015,0.0197,0.0196,0.0199,0.0195,0.0239,0.0239,0.0238,0.0238,0.0238,0,-0.0482,-0.0491,-0.0493,-0.05,-0.0512,-0.0476,-0.0478,-0.0443,-0.0402,-0.0388,-0.0303,-0.027,-0.0144,-0.006,0.0024,0.013,0.0148,0.0202,0.0219,0.0183,0.0177,0.0204,0.0199,0.0241,0.024,0.024,0.0239,0,-0.051,-0.051,-0.053,-0.0528,-0.0532,-0.0545,-0.054,-0.0537,-0.0483,-0.0464,-0.045,-0.0329,-0.021,-0.0083,0.0065,0.0123,0.0228,0.0266,0.021,0.0222,0.0249,0.0242,0.0321,0.0322,0.0322,0.0322,0.0322,0,-0.0522,-0.0538,-0.0572,-0.06,-0.0609,-0.0625,-0.064,-0.0595,-0.0592,-0.0503,-0.0498,-0.0368,-0.0281,-0.0079,0.0058,0.0229,0.0252,0.0296,0.0284,0.0251,0.0261,0.0253,0.0246,0.0322,0.0322,0.0322,0.0322,0,-0.0549,-0.0574,-0.0597,-0.0659,-0.0696,-0.0721,-0.0734,-0.0732,-0.0674,-0.0637,-0.0534,-0.0404,-0.0259,-0.0086,0.0055,0.0174,0.0258,0.0298,0.0299,0.0287,0.0254,0.0261,0.0254,0.0323,0.0323,0.0323,0.0323,0,-0.0579,-0.0613,-0.0658,-0.0705,-0.076,-0.0788,-0.0787,-0.0764,-0.0739,-0.0637,-0.0608,-0.0425,-0.0317,-0.0113,0.001,0.0133,0.0162,0.0179,0.0186,0.0187,0.0128,0.0064,0.0096,0,0,0,0,0,-0.06,-0.0639,-0.0694,-0.0743,-0.0799,-0.0819,-0.0834,-0.082,-0.0773,-0.0717,-0.0655,-0.0517,-0.0289,-0.0175,-0.0054,0.0008,0.0175,0.0151,0.0196,0.0326,0.0326,0.0277,0,0,0,0,0,0,-0.0615,-0.0674,-0.0697,-0.0761,-0.0797,-0.0845,-0.0852,-0.0822,-0.0774,-0.0712,-0.0585,-0.0511,-0.0284,-0.036,-0.0058,-0.0016,0.0022,0.0265,0.0267,0.0327,0.0326,0.0326,0.0276,0,0,0,0,0]}]]